Regional Weather Roundup
Issued by NWS Newport/Morehead, NC

Current Version | Previous Version | Text Only | Print | Product List | Glossary Off
Versions: 1 2 3 4 5 6 7 8 9 10 11 12 13 14 15 16 17 18 19 20 21 22 23 24 25 26 27 28 29 30 31 32 33 34 35 36 37 38 39 40 41 42 43 44 45 46 47 48 49 50
000 ASUS42 KMHX 241014 RWRMHX WEATHER ROUNDUP FOR EASTERN NORTH CAROLINA NATIONAL WEATHER SERVICE NEWPORT/MOREHEAD CITY NC 600 AM EDT MON JUL 24 2017 NOTE: "FAIR" INDICATES FEW OR NO CLOUDS BELOW 12,000 FEET WITH NO SIGNIFICANT WEATHER AND/OR OBSTRUCTIONS TO VISIBILITY NCZ015>017-031-032-045>047-102-103-241100- NORTH COAST CITY SKY/WX TMP DP RH WIND PRES REMARKS EDENTON MOCLDY 77 73 87 SW8 29.88R ELIZABETH CITY MOCLDY 72 72 100 SW6 29.86S KITTY HAWK CLOUDY 78 74 88 W5 29.86S MANTEO CLOUDY 77 74 91 W7 29.88R $$ NCZ045>047-081-094-103-104-241100- CENTRAL COAST CITY SKY/WX TMP DP RH WIND PRES REMARKS FRISCO CLEAR 78 74 87 SW10G21 29.89R $$ NCZ095-097-098-100-101-241100- SOUTHERN COAST CITY SKY/WX TMP DP RH WIND PRES REMARKS BEAUFORT MOCLDY 81 79 94 SW14G22 29.90S CEDAR ISLAND NOT AVBL JACKSONVILLE CLOUDY 78 77 96 SW5 29.90R PINEY ISLAND PTSUNNY N/A N/A N/A SW14 29.90R WILMINGTON MOCLDY 79 76 90 SW7 29.91R $$ NCZ011>013-027>030-043-044-078>080-089-090>093-098-241100- COASTAL PLAIN CITY SKY/WX TMP DP RH WIND PRES REMARKS AHOSKIE N/A 69 69 99 S3 29.86S FOG CLINTON CLOUDY 72 72 100 CALM 29.91R ELIZABETHTOWN NOT AVBL GOLDSBORO CLOUDY 74 74 100 SW6 29.88R GREENVILLE MOCLDY 72 72 100 SW7 29.91R HAVELOCK MOCLDY 79 75 87 SW9 29.91R KENANSVILLE CLOUDY 72 72 100 SW3 29.90R FOG KINSTON CLOUDY 73 70 91 CALM 29.90S NEW BERN CLOUDY 78 76 93 SW7 29.91R RICHLANDS CLOUDY 76 75 97 SW6 29.91R ROCKY MOUNT CLOUDY 72 72 100 S7 29.87R WASHINGTON PTCLDY 73 72 94 SW3 29.89S WHITEVILLE PTCLDY 75 73 95 CALM 29.90S $$ AMZ130-135-150-152-154-156-158-170-250-252-270-ANZ085-086-088-633-658-670-241100- MARINE OBSERVATIONS STATION/POSITION TIME TEMP WIND PRES WAVE SWELL AIR SEA DIR/SP/G HT/PER HT/PER (UTC) (F) (DEG/KT/KT) (MB) (FT/S) (FT/S) CHESAPEAKE LIGHT NOT AVBL 64 E VA BEACH 0950 78 79 250/ 12/ 14 1011.5 4/ 7 3/ 7 DUCK 0948 79 61 240/ 14/ 17 1011.0 2 E DUCK 1000 63 N/A 2/ 9 OREGON INLET 0942 81 82 230/ 18/ 22 1011.4 13E OREGON INLT 0948 74 N/A 5/ 5 2/11 HATTERAS CG 0948 78 77 240/ 11/ 16 1012.1 DIAMOND BUOY 0950 83 84 240/ 23/ 27 1011.7 8/ 7 2/ 9 CAPE LOOKOUT 1000 77 240/ 13/ 19 1012.4 BEAUFORT LAB 0948 81 80 240/ 7/ 13 1012.0 30 SE NEW RVR IN 0908 81 81 240/ 21/ 27 1012.6 30 SE NEW RVR IN 0943 81 N/A 8/ 7 2/22 27 SE WRIGHTSVLE 0908 82 83 230/ 19/ 25 1012.3 5 SE WRIGHTSVLE 0908 81 80 240/ 16/ 21 1012.2 225 S CAPE HAT 0950 82 83 220/ 17/ 19 1016.3 5/ 5 2/ 8 41 SE CHARLESTON 0950 81 83 230/ 19/ 25 1013.5 6/ 6 2/ 9 $$

USA.gov is the U.S. government's official web portal to all federal, state and local government web resources and services.